05-10-2022, 00:00:04,    221,    6.4,   14.2,   0.00,   0.00, 1009.0,   73.8, -999.0
05-10-2022, 00:00:15,    213,    3.8,   14.3,   0.00,   0.00, 1009.0,   73.8, -999.0
05-10-2022, 00:00:24,    207,    2.8,   14.1,   0.00,   0.00, 1009.0,   73.9, -999.0
05-10-2022, 00:00:34,    180,    1.6,   14.2,   0.00,   0.00, 1009.0,   73.8, -999.0
05-10-2022, 00:00:45,    190,    1.6,   14.3,   0.00,   0.00, 1009.0,   73.9, -999.0
05-10-2022, 00:00:54,    194,    2.1,   14.2,   0.00,   0.00, 1009.0,   73.9, -999.0
05-10-2022, 00:01:04,    218,    1.5,   14.3,   0.00,   0.00, 1009.0,   73.8, -999.0
05-10-2022, 00:01:14,    163,    4.4,   14.2,   0.00,   0.00, 1009.0,   73.8, -999.0
05-10-2022, 00:01:24,    220,    4.1,   14.2,   0.00,   0.00, 1009.0,   73.8, -999.0
05-10-2022, 00:01:34,    208,    3.6,   14.3,   0.00,   0.00, 1009.0,   73.9, -999.0
05-10-2022, 00:01:44,    157,    4.0,   14.2,   0.00,   0.00, 1009.0,   73.9, -999.0
05-10-2022, 00:01:54,    201,    0.5,   14.2,   0.00,   0.00, 1008.9,   73.7, -999.0
05-10-2022, 00:02:04,    242,    2.2,   14.2,   0.00,   0.00, 1009.0,   73.9, -999.0
05-10-2022, 00:02:14,    201,    2.5,   14.2,   0.00,   0.00, 1009.0,   73.9, -999.0
05-10-2022, 00:02:24,    225,    5.6,   14.2,   0.00,   0.00, 1009.0,   73.9, -999.0
05-10-2022, 00:02:34,    209,    3.1,   14.2,   0.00,   0.00, 1009.0,   74.0, -999.0
05-10-2022, 00:02:44,    212,    5.2,   14.3,   0.00,   0.00, 1009.0,   73.9, -999.0
05-10-2022, 00:02:54,    183,    3.0,   14.3,   0.00,   0.00, 1009.0,   74.0, -999.0
05-10-2022, 00:03:04,    208,    3.4,   14.2,   0.00,   0.00, 1009.0,   73.9, -999.0
05-10-2022, 00:03:13,    252,    4.9,   14.2,   0.00,   0.00, 1009.0,   73.9, -999.0
05-10-2022, 00:03:24,    207,    4.7,   14.2,   0.00,   0.00, 1009.0,   73.9, -999.0
05-10-2022, 00:03:33,    231,    3.9,   14.3,   0.00,   0.00, 1009.0,   74.0, -999.0
05-10-2022, 00:03:43,    226,    1.6,   14.2,   0.00,   0.00, 1008.9,   73.9, -999.0
05-10-2022, 00:03:54,    209,    2.1,   14.2,   0.00,   0.00, 1009.0,   73.9, -999.0
05-10-2022, 00:04:03,    218,    0.9,   14.2,   0.00,   0.00, 1009.0,   74.0, -999.0
05-10-2022, 00:04:13,    202,    2.9,   14.3,   0.00,   0.00, 1009.0,   74.0, -999.0
05-10-2022, 00:04:23,    150,    2.2,   14.2,   0.00,   0.00, 1009.0,   73.9, -999.0
05-10-2022, 00:04:33,    163,    3.9,   14.2,   0.00,   0.00, 1009.0,   74.0, -999.0
05-10-2022, 00:04:43,    250,    2.7,   14.2,   0.00,   0.00, 1009.0,   74.0, -999.0
05-10-2022, 00:04:53,    220,    2.5,   14.2,   0.00,   0.00, 1009.0,   74.0, -999.0
05-10-2022, 00:05:03,    223,    4.8,   14.2,   0.00,   0.00, 1009.0,   74.1, -999.0
05-10-2022, 00:05:13,    210,    3.7,   14.2,   0.00,   0.00, 1009.0,   74.0, -999.0
05-10-2022, 00:05:23,    198,    5.0,   14.2,   0.00,   0.00, 1009.0,   74.0, -999.0
05-10-2022, 00:05:33,    258,    2.5,   14.3,   0.00,   0.00, 1009.0,   74.0, -999.0
05-10-2022, 00:05:43,    219,    3.8,   14.2,   0.00,   0.00, 1009.0,   74.1, -999.0
05-10-2022, 00:05:53,    178,    3.9,   14.2,   0.00,   0.00, 1009.0,   74.0, -999.0
05-10-2022, 00:06:03,    211,    1.3,   14.3,   0.00,   0.00, 1008.9,   74.0, -999.0
05-10-2022, 00:06:13,    178,    0.5,   14.2,   0.00,   0.00, 1008.9,   73.8, -999.0
05-10-2022, 00:06:22,    159,    0.7,   14.2,   0.00,   0.00, 1008.9,   73.9, -999.0
05-10-2022, 00:06:33,    214,    1.6,   14.2,   0.00,   0.00, 1009.0,   74.0, -999.0
05-10-2022, 00:06:42,    207,    2.8,   14.3,   0.00,   0.00, 1009.0,   74.0, -999.0
05-10-2022, 00:06:52,    187,    2.9,   14.3,   0.00,   0.00, 1009.0,   74.1, -999.0
05-10-2022, 00:07:02,    174,    1.0,   14.2,   0.00,   0.00, 1009.0,   74.1, -999.0
05-10-2022, 00:07:12,    205,    2.6,   14.2,   0.00,   0.00, 1009.0,   74.1, -999.0
05-10-2022, 00:07:22,    212,    2.4,   14.2,   0.00,   0.00, 1009.0,   74.1, -999.0
05-10-2022, 00:07:32,    258,    1.6,   14.2,   0.00,   0.00, 1009.0,   74.1, -999.0
05-10-2022, 00:07:42,    196,    6.5,   14.1,   0.00,   0.00, 1009.0,   74.2, -999.0
05-10-2022, 00:07:52,    257,    4.9,   14.2,   0.00,   0.00, 1009.0,   74.2, -999.0
05-10-2022, 00:08:02,    213,    4.3,   14.1,   0.00,   0.00, 1009.0,   74.2, -999.0
05-10-2022, 00:08:12,    160,    5.6,   14.2,   0.00,   0.00, 1009.0,   74.2, -999.0
05-10-2022, 00:08:22,    214,    3.8,   14.2,   0.00,   0.00, 1009.0,   74.2, -999.0
05-10-2022, 00:08:32,    250,    5.7,   14.2,   0.00,   0.00, 1009.0,   74.2, -999.0
05-10-2022, 00:08:42,    230,    5.1,   14.2,   0.00,   0.00, 1009.0,   74.2, -999.0
05-10-2022, 00:08:52,    183,    3.9,   14.2,   0.00,   0.00, 1009.0,   74.2, -999.0
05-10-2022, 00:09:02,    177,    5.4,   14.2,   0.00,   0.00, 1009.0,   74.2, -999.0
05-10-2022, 00:09:12,    223,    6.1,   14.3,   0.00,   0.00, 1008.9,   74.3, -999.0
05-10-2022, 00:09:21,    188,    4.5,   14.2,   0.00,   0.00, 1009.0,   74.2, -999.0
05-10-2022, 00:09:31,    193,    4.4,   14.2,   0.00,   0.00, 1009.0,   74.2, -999.0
05-10-2022, 00:09:42,    232,    4.6,   14.2,   0.00,   0.00, 1008.9,   74.2, -999.0
05-10-2022, 00:09:51,    223,    6.6,   14.3,   0.00,   0.00, 1009.0,   74.2, -999.0
05-10-2022, 00:10:01,    202,    4.8,   14.2,   0.00,   0.00, 1009.0,   74.2, -999.0
05-10-2022, 00:10:11,    201,    5.1,   14.2,   0.00,   0.00, 1009.0,   74.4, -999.0
05-10-2022, 00:10:21,    222,    3.8,   14.2,   0.00,   0.00, 1008.9,   74.3, -999.0
05-10-2022, 00:10:31,    208,    5.6,   14.2,   0.00,   0.00, 1009.0,   74.4, -999.0
05-10-2022, 00:10:41,    133,    5.6,   14.2,   0.00,   0.00, 1008.9,   74.3, -999.0
05-10-2022, 00:10:51,    185,    2.2,   14.2,   0.00,   0.00, 1008.9,   74.4, -999.0
05-10-2022, 00:11:01,    182,    2.9,   14.2,   0.00,   0.00, 1009.0,   74.4, -999.0
05-10-2022, 00:11:11,    116,    4.0,   14.2,   0.00,   0.00, 1008.9,   74.4, -999.0
05-10-2022, 00:11:21,    204,    3.3,   14.1,   0.00,   0.00, 1008.9,   74.4, -999.0
05-10-2022, 00:11:31,    203,    5.5,   14.2,   0.00,   0.00, 1009.0,   74.4, -999.0
05-10-2022, 00:11:41,    218,    6.6,   14.2,   0.00,   0.00, 1008.9,   74.4, -999.0
05-10-2022, 00:11:51,    176,    5.6,   14.2,   0.00,   0.00, 1009.0,   74.4, -999.0
05-10-2022, 00:12:01,    219,    4.9,   14.2,   0.00,   0.00, 1009.0,   74.4, -999.0
05-10-2022, 00:12:11,    212,    4.2,   14.2,   0.00,   0.00, 1009.0,   74.4, -999.0
05-10-2022, 00:12:21,    226,    4.2,   14.2,   0.00,   0.00, 1008.9,   74.5, -999.0
05-10-2022, 00:12:30,    205,    6.6,   14.2,   0.00,   0.00, 1008.9,   74.5, -999.0
05-10-2022, 00:12:40,    239,    9.0,   14.2,   0.00,   0.00, 1009.0,   74.5, -999.0
05-10-2022, 00:12:51,    226,    6.8,   14.2,   0.00,   0.00, 1008.9,   74.4, -999.0
05-10-2022, 00:13:00,    228,    6.2,   14.2,   0.00,   0.00, 1008.9,   74.5, -999.0
05-10-2022, 00:13:10,    216,    5.2,   14.2,   0.00,   0.00, 1009.0,   74.4, -999.0
05-10-2022, 00:13:20,    230,    2.5,   14.2,   0.00,   0.00, 1008.9,   74.5, -999.0
05-10-2022, 00:13:30,    174,    2.4,   14.2,   0.00,   0.00, 1008.9,   74.4, -999.0
05-10-2022, 00:13:40,    208,    2.2,   14.2,   0.00,   0.00, 1008.9,   74.5, -999.0
05-10-2022, 00:13:50,    201,    2.4,   14.2,   0.00,   0.00, 1008.9,   74.5, -999.0
05-10-2022, 00:14:00,    190,    3.2,   14.2,   0.00,   0.00, 1008.9,   74.4, -999.0
05-10-2022, 00:14:10,    195,    0.7,   14.2,   0.00,   0.00, 1008.9,   74.5, -999.0
05-10-2022, 00:14:20,    209,    1.0,   14.2,   0.00,   0.00, 1008.8,   74.4, -999.0
05-10-2022, 00:14:30,    200,    4.5,   14.2,   0.00,   0.00, 1008.9,   74.5, -999.0
05-10-2022, 00:14:40,    248,    6.6,   14.2,   0.00,   0.00, 1008.8,   74.5, -999.0
05-10-2022, 00:14:50,    160,    3.4,   14.2,   0.00,   0.00, 1008.9,   74.4, -999.0
05-10-2022, 00:15:00,    209,    2.5,   14.2,   0.00,   0.00, 1008.8,   74.5, -999.0
05-10-2022, 00:15:09,    206,    2.5,   14.2,   0.00,   0.00, 1008.8,   74.5, -999.0
05-10-2022, 00:15:20,    205,    3.3,   14.2,   0.00,   0.00, 1008.8,   74.5, -999.0
05-10-2022, 00:15:30,    233,    5.3,   14.2,   0.00,   0.00, 1008.9,   74.5, -999.0
05-10-2022, 00:15:39,    193,    4.2,   14.2,   0.00,   0.00, 1008.8,   74.5, -999.0
05-10-2022, 00:15:49,    215,    3.4,   14.2,   0.00,   0.00, 1008.9,   74.5, -999.0
05-10-2022, 00:16:00,    260,    4.0,   14.2,   0.00,   0.00, 1008.9,   74.5, -999.0
05-10-2022, 00:16:09,    206,    2.3,   14.2,   0.00,   0.00, 1008.9,   74.5, -999.0
05-10-2022, 00:16:19,    212,    2.4,   14.2,   0.00,   0.00, 1008.8,   74.5, -999.0
05-10-2022, 00:16:29,    217,    3.0,   14.2,   0.00,   0.00, 1008.8,   74.5, -999.0
05-10-2022, 00:16:39,    222,    3.3,   14.2,   0.00,   0.00, 1008.8,   74.6, -999.0
05-10-2022, 00:16:49,    216,    6.6,   14.2,   0.00,   0.00, 1008.8,   74.6, -999.0
05-10-2022, 00:16:59,    222,    5.0,   14.2,   0.00,   0.00, 1008.8,   74.6, -999.0
05-10-2022, 00:17:09,    191,    2.0,   14.2,   0.00,   0.00, 1008.8,   74.6, -999.0
05-10-2022, 00:17:19,    134,    4.9,   14.1,   0.00,   0.00, 1008.7,   74.6, -999.0
05-10-2022, 00:17:29,    209,    5.9,   14.2,   0.00,   0.00, 1008.8,   74.6, -999.0
05-10-2022, 00:17:39,    205,    4.7,   14.2,   0.00,   0.00, 1008.7,   74.7, -999.0
05-10-2022, 00:17:49,    217,    7.0,   14.2,   0.00,   0.00, 1008.8,   74.6, -999.0
05-10-2022, 00:17:59,    205,    6.8,   14.2,   0.00,   0.00, 1008.7,   74.7, -999.0
05-10-2022, 00:18:09,    194,    4.7,   14.2,   0.00,   0.00, 1008.8,   74.7, -999.0
05-10-2022, 00:18:18,    165,    2.4,   14.2,   0.00,   0.00, 1008.7,   74.7, -999.0
05-10-2022, 00:18:29,    196,    1.3,   14.2,   0.00,   0.00, 1008.7,   74.7, -999.0
05-10-2022, 00:18:39,    181,    2.6,   14.2,   0.00,   0.00, 1008.7,   74.8, -999.0
05-10-2022, 00:18:48,    174,    2.4,   14.2,   0.00,   0.00, 1008.7,   74.7, -999.0
05-10-2022, 00:18:58,    190,    1.6,   14.2,   0.00,   0.00, 1008.7,   74.8, -999.0
05-10-2022, 00:19:09,    224,    3.4,   14.2,   0.00,   0.00, 1008.7,   74.7, -999.0
05-10-2022, 00:19:18,    200,    2.7,   14.2,   0.00,   0.00, 1008.7,   74.7, -999.0
05-10-2022, 00:19:28,    195,    1.4,   14.1,   0.00,   0.00, 1008.7,   74.7, -999.0
05-10-2022, 00:19:38,    155,    1.7,   14.2,   0.00,   0.00, 1008.7,   74.7, -999.0
05-10-2022, 00:19:48,    172,    2.4,   14.2,   0.00,   0.00, 1008.7,   74.8, -999.0
05-10-2022, 00:19:58,    209,    1.6,   14.1,   0.00,   0.00, 1008.7,   74.7, -999.0
05-10-2022, 00:20:08,    177,    1.7,   14.1,   0.00,   0.00, 1008.6,   74.8, -999.0
05-10-2022, 00:20:18,    235,    3.8,   14.1,   0.00,   0.00, 1008.7,   74.8, -999.0
05-10-2022, 00:20:28,    226,    4.0,   14.2,   0.00,   0.00, 1008.7,   74.8, -999.0
05-10-2022, 00:20:38,    223,    3.3,   14.2,   0.00,   0.00, 1008.7,   74.8, -999.0
05-10-2022, 00:20:48,    196,    5.2,   14.2,   0.00,   0.00, 1008.6,   74.8, -999.0
05-10-2022, 00:20:58,    209,    5.1,   14.2,   0.00,   0.00, 1008.7,   74.8, -999.0
05-10-2022, 00:21:08,    172,    6.0,   14.1,   0.00,   0.00, 1008.6,   74.8, -999.0
05-10-2022, 00:21:18,    173,    4.8,   14.0,   0.00,   0.00, 1008.6,   74.8, -999.0
05-10-2022, 00:21:27,    197,    3.0,   14.1,   0.00,   0.00, 1008.6,   74.8, -999.0
05-10-2022, 00:21:38,    220,    4.8,   14.1,   0.00,   0.00, 1008.6,   74.8, -999.0
05-10-2022, 00:21:48,    216,    4.1,   14.2,   0.00,   0.00, 1008.6,   74.8, -999.0
05-10-2022, 00:21:57,    220,    4.6,   14.2,   0.00,   0.00, 1008.7,   74.8, -999.0
05-10-2022, 00:22:07,    257,    2.5,   14.2,   0.00,   0.00, 1008.6,   74.9, -999.0
05-10-2022, 00:22:17,    193,    1.2,   14.1,   0.00,   0.00, 1008.7,   74.8, -999.0
05-10-2022, 00:22:27,    213,    1.1,   14.1,   0.00,   0.00, 1008.6,   74.8, -999.0
05-10-2022, 00:22:37,    205,    2.9,   14.2,   0.00,   0.00, 1008.6,   74.9, -999.0
05-10-2022, 00:22:47,    202,    3.4,   14.2,   0.00,   0.00, 1008.6,   74.8, -999.0
05-10-2022, 00:22:57,    202,    0.9,   14.2,   0.00,   0.00, 1008.6,   74.7, -999.0
05-10-2022, 00:23:07,    253,    1.8,   14.2,   0.00,   0.00, 1008.6,   74.8, -999.0
05-10-2022, 00:23:17,    198,    2.3,   14.2,   0.00,   0.00, 1008.6,   74.8, -999.0
05-10-2022, 00:23:29,    161,    2.3,   14.1,   0.00,   0.00, 1008.6,   74.9, -999.0
05-10-2022, 00:23:37,    157,    1.4,   14.1,   0.00,   0.00, 1008.7,   74.8, -999.0
05-10-2022, 00:23:47,    150,    3.3,   14.1,   0.00,   0.00, 1008.6,   74.8, -999.0
05-10-2022, 00:23:57,    225,    4.0,   14.2,   0.00,   0.00, 1008.6,   74.9, -999.0
05-10-2022, 00:24:07,    163,    4.0,   14.1,   0.00,   0.00, 1008.6,   74.8, -999.0
05-10-2022, 00:24:17,    189,    4.0,   14.1,   0.00,   0.00, 1008.6,   74.8, -999.0
05-10-2022, 00:24:27,    176,    6.5,   14.2,   0.00,   0.00, 1008.6,   74.8, -999.0
05-10-2022, 00:24:36,    196,    3.4,   14.2,   0.00,   0.00, 1008.6,   74.8, -999.0
05-10-2022, 00:24:47,    220,    4.9,   14.2,   0.00,   0.00, 1008.6,   74.8, -999.0
05-10-2022, 00:24:56,    192,    4.3,   14.1,   0.00,   0.00, 1008.6,   74.9, -999.0
05-10-2022, 00:25:06,    228,    3.7,   14.1,   0.00,   0.00, 1008.6,   74.9, -999.0
05-10-2022, 00:25:16,    205,    3.9,   14.1,   0.00,   0.00, 1008.6,   74.9, -999.0
05-10-2022, 00:25:26,    179,    5.2,   14.1,   0.00,   0.00, 1008.6,   74.9, -999.0
05-10-2022, 00:25:36,    193,    3.0,   14.1,   0.00,   0.00, 1008.6,   74.9, -999.0
05-10-2022, 00:25:46,    222,    3.4,   14.1,   0.00,   0.00, 1008.6,   74.8, -999.0
05-10-2022, 00:25:56,    169,    3.3,   14.2,   0.00,   0.00, 1008.6,   74.9, -999.0
05-10-2022, 00:26:06,    182,    2.7,   14.2,   0.00,   0.00, 1008.6,   74.9, -999.0
05-10-2022, 00:26:16,    147,    2.6,   14.1,   0.00,   0.00, 1008.5,   74.9, -999.0
05-10-2022, 00:26:26,    187,    3.0,   14.1,   0.00,   0.00, 1008.6,   74.9, -999.0
05-10-2022, 00:26:36,    191,    1.6,   14.1,   0.00,   0.00, 1008.5,   75.0, -999.0
05-10-2022, 00:26:46,    196,    3.8,   14.1,   0.00,   0.00, 1008.6,   75.0, -999.0
05-10-2022, 00:26:56,    209,    3.9,   14.1,   0.00,   0.00, 1008.6,   74.9, -999.0
05-10-2022, 00:27:06,    235,    3.3,   14.1,   0.00,   0.00, 1008.6,   75.0, -999.0
05-10-2022, 00:27:16,    186,    4.0,   14.1,   0.00,   0.00, 1008.6,   74.9, -999.0
05-10-2022, 00:27:26,    198,    1.6,   14.1,   0.00,   0.00, 1008.6,   74.9, -999.0
05-10-2022, 00:27:36,    195,    2.1,   14.1,   0.00,   0.00, 1008.6,   74.9, -999.0
05-10-2022, 00:27:45,    241,    4.1,   14.1,   0.00,   0.00, 1008.6,   74.9, -999.0
05-10-2022, 00:27:56,    196,    2.9,   14.2,   0.00,   0.00, 1008.6,   75.0, -999.0
05-10-2022, 00:28:05,    138,    1.1,   14.1,   0.00,   0.00, 1008.5,   74.8, -999.0
05-10-2022, 00:28:15,    190,    0.8,   14.0,   0.00,   0.00, 1008.5,   75.0, -999.0
05-10-2022, 00:28:26,    208,    1.0,   14.2,   0.00,   0.00, 1008.6,   75.0, -999.0
05-10-2022, 00:28:35,    213,    2.9,   14.1,   0.00,   0.00, 1008.6,   75.0, -999.0
05-10-2022, 00:28:45,    194,    3.1,   14.1,   0.00,   0.00, 1008.6,   74.9, -999.0
05-10-2022, 00:28:55,    185,    2.0,   14.1,   0.00,   0.00, 1008.5,   75.0, -999.0
05-10-2022, 00:29:05,    219,    1.2,   14.1,   0.00,   0.00, 1008.6,   75.0, -999.0
05-10-2022, 00:29:15,    225,    3.7,   14.1,   0.00,   0.00, 1008.6,   74.9, -999.0
05-10-2022, 00:29:25,    225,    1.8,   14.1,   0.00,   0.00, 1008.6,   75.0, -999.0
05-10-2022, 00:29:35,    164,    3.1,   14.1,   0.00,   0.00, 1008.6,   75.0, -999.0
05-10-2022, 00:29:45,    140,    4.0,   14.1,   0.00,   0.00, 1008.6,   75.0, -999.0
05-10-2022, 00:29:55,    268,    1.4,   14.1,   0.00,   0.00, 1008.5,   75.0, -999.0
05-10-2022, 00:30:05,    228,    3.4,   14.1,   0.00,   0.00, 1008.6,   74.9, -999.0
05-10-2022, 00:30:15,    225,    4.8,   14.2,   0.00,   0.00, 1008.6,   74.9, -999.0
05-10-2022, 00:30:25,    220,    3.5,   14.1,   0.00,   0.00, 1008.6,   75.0, -999.0
05-10-2022, 00:30:35,    213,    3.3,   14.1,   0.00,   0.00, 1008.6,   74.9, -999.0
05-10-2022, 00:30:44,    212,    5.4,   14.1,   0.00,   0.00, 1008.6,   75.0, -999.0
05-10-2022, 00:30:54,    187,    4.2,   14.1,   0.00,   0.00, 1008.6,   74.9, -999.0
05-10-2022, 00:31:05,    216,    5.0,   14.1,   0.00,   0.00, 1008.6,   74.8, -999.0
05-10-2022, 00:31:14,    200,    4.0,   14.1,   0.00,   0.00, 1008.5,   74.9, -999.0
05-10-2022, 00:31:24,    203,    3.6,   14.1,   0.00,   0.00, 1008.5,   74.8, -999.0
05-10-2022, 00:31:35,    168,    2.2,   14.1,   0.00,   0.00, 1008.6,   74.9, -999.0
05-10-2022, 00:31:44,    221,    2.4,   14.1,   0.00,   0.00, 1008.6,   74.9, -999.0
05-10-2022, 00:31:54,    231,    3.8,   14.1,   0.00,   0.00, 1008.6,   74.9, -999.0
05-10-2022, 00:32:04,    203,    4.1,   14.1,   0.00,   0.00, 1008.6,   74.9, -999.0
05-10-2022, 00:32:14,    228,    3.8,   14.1,   0.00,   0.00, 1008.6,   74.9, -999.0
05-10-2022, 00:32:24,    172,    3.6,   14.1,   0.00,   0.00, 1008.6,   74.9, -999.0
05-10-2022, 00:32:34,    140,    3.8,   14.1,   0.00,   0.00, 1008.5,   74.9, -999.0
05-10-2022, 00:32:44,    153,    2.3,   14.2,   0.00,   0.00, 1008.5,   74.9, -999.0
05-10-2022, 00:32:54,    218,    4.6,   14.1,   0.00,   0.00, 1008.6,   74.9, -999.0
05-10-2022, 00:33:04,    230,    3.6,   14.1,   0.00,   0.00, 1008.6,   74.9, -999.0
05-10-2022, 00:33:14,    194,    3.3,   14.1,   0.00,   0.00, 1008.6,   74.9, -999.0
05-10-2022, 00:33:24,    199,    3.8,   14.1,   0.00,   0.00, 1008.6,   75.0, -999.0
05-10-2022, 00:33:34,    148,    4.4,   14.1,   0.00,   0.00, 1008.5,   75.0, -999.0
05-10-2022, 00:33:44,    229,    4.0,   14.1,   0.00,   0.00, 1008.5,   74.9, -999.0
05-10-2022, 00:33:53,    179,    3.1,   14.1,   0.00,   0.00, 1008.6,   74.9, -999.0
05-10-2022, 00:34:03,    211,    2.3,   14.1,   0.00,   0.00, 1008.5,   74.9, -999.0
05-10-2022, 00:34:14,    184,    3.1,   14.1,   0.00,   0.00, 1008.6,   75.0, -999.0
05-10-2022, 00:34:23,    220,    4.3,   14.1,   0.00,   0.00, 1008.6,   75.0, -999.0
05-10-2022, 00:34:33,    213,    2.5,   14.1,   0.00,   0.00, 1008.5,   75.0, -999.0
05-10-2022, 00:34:44,    220,    1.8,   14.1,   0.00,   0.00, 1008.5,   75.0, -999.0
05-10-2022, 00:34:53,    222,    4.9,   14.1,   0.00,   0.00, 1008.5,   75.0, -999.0
05-10-2022, 00:35:03,    123,    2.7,   14.1,   0.00,   0.00, 1008.5,   75.0, -999.0
05-10-2022, 00:35:13,    123,    0.5,   14.1,   0.00,   0.00, 1008.5,   74.8, -999.0
05-10-2022, 00:35:23,    246,    3.6,   14.1,   0.00,   0.00, 1008.5,   74.9, -999.0
05-10-2022, 00:35:33,    193,    3.2,   14.1,   0.00,   0.00, 1008.5,   74.9, -999.0
05-10-2022, 00:35:43,    203,    3.5,   14.1,   0.00,   0.00, 1008.5,   74.9, -999.0
05-10-2022, 00:35:53,    173,    4.1,   14.1,   0.00,   0.00, 1008.5,   75.0, -999.0
05-10-2022, 00:36:03,    207,    2.3,   14.1,   0.00,   0.00, 1008.5,   74.9, -999.0
05-10-2022, 00:36:13,    242,    0.5,   14.1,   0.00,   0.00, 1008.6,   74.8, -999.0
05-10-2022, 00:36:23,    189,    0.7,   14.1,   0.00,   0.00, 1008.5,   74.9, -999.0
05-10-2022, 00:36:32,    175,    1.0,   14.1,   0.00,   0.00, 1008.5,   74.9, -999.0
05-10-2022, 00:36:43,    176,    0.5,   14.1,   0.00,   0.00, 1008.5,   74.9, -999.0
05-10-2022, 00:36:53,    214,    2.0,   14.1,   0.00,   0.00, 1008.6,   74.9, -999.0
05-10-2022, 00:37:02,    177,    3.9,   14.1,   0.00,   0.00, 1008.5,   74.9, -999.0
05-10-2022, 00:37:12,    315,    2.9,   14.1,   0.00,   0.00, 1008.5,   75.0, -999.0
05-10-2022, 00:37:23,    188,    2.3,   14.1,   0.00,   0.00, 1008.5,   74.9, -999.0
05-10-2022, 00:37:32,    194,    2.1,   14.1,   0.00,   0.00, 1008.4,   74.9, -999.0
05-10-2022, 00:37:42,    187,    1.3,   14.1,   0.00,   0.00, 1008.5,   74.9, -999.0
05-10-2022, 00:37:52,    213,    1.7,   14.1,   0.00,   0.00, 1008.5,   74.9, -999.0
05-10-2022, 00:38:02,    216,    0.5,   14.1,   0.00,   0.00, 1008.5,   74.9, -999.0
05-10-2022, 00:38:12,    219,    2.7,   14.0,   0.00,   0.00, 1008.5,   74.9, -999.0
05-10-2022, 00:38:22,    202,    2.7,   14.1,   0.00,   0.00, 1008.5,   74.9, -999.0
05-10-2022, 00:38:32,    242,    0.9,   14.1,   0.00,   0.00, 1008.4,   75.0, -999.0
05-10-2022, 00:38:42,    188,    2.1,   14.1,   0.00,   0.00, 1008.5,   74.9, -999.0
05-10-2022, 00:38:52,    226,    3.8,   14.2,   0.00,   0.00, 1008.5,   75.0, -999.0
05-10-2022, 00:39:02,    221,    5.1,   14.1,   0.00,   0.00, 1008.6,   74.9, -999.0
05-10-2022, 00:39:12,    232,    4.8,   14.1,   0.00,   0.00, 1008.5,   75.0, -999.0
05-10-2022, 00:39:22,    266,    4.9,   14.1,   0.00,   0.00, 1008.5,   74.9, -999.0
05-10-2022, 00:39:32,    219,    5.8,   14.1,   0.00,   0.00, 1008.4,   74.9, -999.0
05-10-2022, 00:39:41,    187,    5.1,   14.1,   0.00,   0.00, 1008.5,   74.8, -999.0
05-10-2022, 00:39:52,    169,    3.3,   14.1,   0.00,   0.00, 1008.5,   74.8, -999.0
05-10-2022, 00:40:02,    173,    2.6,   14.2,   0.00,   0.00, 1008.5,   74.8, -999.0
05-10-2022, 00:40:11,    259,    5.0,   14.2,   0.00,   0.00, 1008.5,   74.7, -999.0
05-10-2022, 00:40:22,    207,    5.2,   14.1,   0.00,   0.00, 1008.5,   74.7, -999.0
05-10-2022, 00:40:32,    227,    5.6,   14.2,   0.00,   0.00, 1008.4,   74.7, -999.0
05-10-2022, 00:40:41,    218,    4.4,   14.2,   0.00,   0.00, 1008.4,   74.7, -999.0
05-10-2022, 00:40:51,    184,    1.2,   14.2,   0.00,   0.00, 1008.5,   74.7, -999.0
05-10-2022, 00:41:01,    216,    1.3,   14.2,   0.00,   0.00, 1008.5,   74.7, -999.0
05-10-2022, 00:41:11,    228,    2.4,   14.2,   0.00,   0.00, 1008.4,   74.7, -999.0
05-10-2022, 00:41:21,    233,    2.8,   14.2,   0.00,   0.00, 1008.5,   74.6, -999.0
05-10-2022, 00:41:31,    230,    5.4,   14.1,   0.00,   0.00, 1008.4,   74.6, -999.0
05-10-2022, 00:41:41,    196,    5.7,   14.1,   0.00,   0.00, 1008.4,   74.6, -999.0
05-10-2022, 00:41:51,    218,    5.5,   14.1,   0.00,   0.00, 1008.4,   74.6, -999.0
05-10-2022, 00:42:01,    161,    6.5,   14.1,   0.00,   0.00, 1008.4,   74.7, -999.0
05-10-2022, 00:42:11,    181,    4.3,   14.2,   0.00,   0.00, 1008.4,   74.7, -999.0
05-10-2022, 00:42:21,    165,    2.6,   14.1,   0.00,   0.00, 1008.4,   74.7, -999.0
05-10-2022, 00:42:31,    229,    1.5,   14.1,   0.00,   0.00, 1008.4,   74.7, -999.0
05-10-2022, 00:42:41,    200,    3.8,   14.1,   0.00,   0.00, 1008.5,   74.7, -999.0
05-10-2022, 00:42:50,     98,    2.3,   14.1,   0.00,   0.00, 1008.4,   74.7, -999.0
05-10-2022, 00:43:01,    189,    0.9,   14.1,   0.00,   0.00, 1008.4,   74.8, -999.0
05-10-2022, 00:43:11,    216,    3.8,   14.2,   0.00,   0.00, 1008.4,   74.8, -999.0
05-10-2022, 00:43:20,    195,    3.5,   14.1,   0.00,   0.00, 1008.4,   74.8, -999.0
05-10-2022, 00:43:31,    219,    1.5,   14.1,   0.00,   0.00, 1008.4,   74.7, -999.0
05-10-2022, 00:43:40,    225,    2.2,   14.1,   0.00,   0.00, 1008.4,   74.8, -999.0
05-10-2022, 00:43:50,    209,    3.0,   14.1,   0.00,   0.00, 1008.5,   74.7, -999.0
05-10-2022, 00:44:00,    205,    5.6,   14.1,   0.00,   0.00, 1008.4,   74.7, -999.0
05-10-2022, 00:44:10,    191,    5.8,   14.1,   0.00,   0.00, 1008.5,   74.7, -999.0
05-10-2022, 00:44:20,    190,    8.6,   14.1,   0.00,   0.00, 1008.4,   74.7, -999.0
05-10-2022, 00:44:30,    207,    6.4,   14.1,   0.00,   0.00, 1008.4,   74.6, -999.0
05-10-2022, 00:44:40,    195,    4.3,   14.2,   0.00,   0.00, 1008.4,   74.6, -999.0
05-10-2022, 00:44:50,    212,    3.6,   14.1,   0.00,   0.00, 1008.4,   74.6, -999.0
05-10-2022, 00:45:00,    229,    3.3,   14.1,   0.00,   0.00, 1008.4,   74.6, -999.0
05-10-2022, 00:45:10,    197,    3.6,   14.2,   0.00,   0.00, 1008.4,   74.7, -999.0
05-10-2022, 00:45:20,    189,    2.3,   14.2,   0.00,   0.00, 1008.4,   74.7, -999.0
05-10-2022, 00:45:30,    217,    3.0,   14.1,   0.00,   0.00, 1008.4,   74.6, -999.0
05-10-2022, 00:45:40,    241,    4.1,   14.2,   0.00,   0.00, 1008.5,   74.7, -999.0
05-10-2022, 00:45:50,    245,    4.6,   14.1,   0.00,   0.00, 1008.4,   74.6, -999.0
05-10-2022, 00:45:59,    207,    2.3,   14.1,   0.00,   0.00, 1008.4,   74.6, -999.0
05-10-2022, 00:46:10,    173,    2.1,   14.1,   0.00,   0.00, 1008.5,   74.6, -999.0
05-10-2022, 00:46:20,    205,    2.3,   14.1,   0.00,   0.00, 1008.4,   74.6, -999.0
05-10-2022, 00:46:29,    200,    5.0,   14.1,   0.00,   0.00, 1008.4,   74.6, -999.0
05-10-2022, 00:46:40,    204,    2.4,   14.1,   0.00,   0.00, 1008.4,   74.6, -999.0